Flag for Portugal Weather past 2 weeks in Porto, Portugal

Now
73 °F

Passing clouds.


Feels Like: 77 °F
Forecast: 60 / 79 °F
Wind: 9 mph from East

Location: Porto / Pedras Rubras

Current Time: May 26, 2015 at 10:01:45 AM

Latest Report: May 26, 2015 at 9:30 AM


Visibility: N/A

Pressure: 30.09 "Hg

Humidity: 44%

Dew point: 50 °F

Location of PortoLocation

Historic Weather in Porto — Graph

°F

Porto temperature yesterday

Maximum temperature yesterday: 79 °F (at 2:00 PM)
Minimum temperature yesterday: 61 °F (at 10:30 PM)
Average temperature yesterday: 69 °F

Past Weeks' High & Low Weather Summary

 TemperatureHumidityPressure
High82 °F (May 17, 1:00 PM)100% (May 11, 9:00 AM)30.36 "Hg (May 11, 9:00 AM)
Low48 °F (May 15, 5:03 AM)31% (May 23, 11:30 AM)29.92 "Hg (May 18, 4:00 PM)
Average63 °F66%30.14 "Hg
* Reported May 11 9:00 AM — May 26 9:00 AM, Porto, Weather by CustomWeather, © 2015

Note: Actual official high and low records may vary slightly from our data, if they occured in-between our weather recording intervals... More about our weather records

Advertising

Porto weather history for previous 24 hours

 ConditionsComfort  
Time TempWeatherWind HumidityBarometerVisibility
9:00 AM
Tue, May 26
72 °FPassing clouds.9 mph50%30.09 "HgN/A
8:30 AM72 °FPassing clouds.9 mph53%30.09 "HgN/A
8:00 AM68 °FPassing clouds.8 mph60%30.09 "HgN/A
7:30 AM66 °FPassing clouds.6 mph68%30.07 "HgN/A
7:00 AM64 °FPassing clouds.6 mph68%30.07 "HgN/A
6:30 AM63 °FPassing clouds.3 mph73%30.07 "HgN/A
6:00 AM61 °FClear.7 mph83%30.04 "Hg10 mi
5:30 AM63 °FClear.6 mph77%30.04 "Hg10 mi
5:00 AM63 °FPassing clouds.5 mph77%30.04 "HgN/A
4:30 AM61 °FClear.5 mph83%30.04 "Hg10 mi
4:00 AM61 °FClear.2 mph88%30.07 "Hg10 mi
3:30 AM57 °FClear.5 mph94%30.07 "Hg10 mi
3:00 AM59 °FClear.6 mph94%30.07 "Hg10 mi
2:30 AM57 °FClear.2 mph94%30.07 "Hg10 mi
2:00 AM57 °FClear.3 mph94%30.07 "Hg10 mi
1:30 AM59 °FClear.3 mph88%30.07 "Hg10 mi
1:00 AM59 °FCool.2 mph88%30.07 "HgN/A
12:30 AM61 °FClear.2 mph88%30.07 "Hg10 mi
12:00 AM61 °FClear.2 mph88%30.07 "Hg10 mi
11:30 PM
Mon, May 25
61 °FClear.No wind83%30.07 "Hg10 mi
11:00 PM63 °FClear.No wind83%30.07 "Hg10 mi
10:30 PM61 °FClear.2 mph83%30.04 "Hg10 mi
9:30 PM64 °FSunny.2 mph73%30.04 "Hg10 mi
9:00 PM66 °FSunny.5 mph73%30.04 "Hg10 mi
8:30 PM68 °FPassing clouds.3 mph69%30.04 "HgN/A
8:00 PM73 °FPassing clouds.8 mph53%30.04 "HgN/A
7:30 PM75 °FSunny.10 mph50%30.04 "Hg10 mi
7:00 PM73 °FSunny.12 mph53%30.04 "Hg10 mi
6:30 PM73 °FSunny.13 mph53%30.04 "Hg10 mi
6:00 PM75 °FSunny.9 mph47%30.04 "Hg10 mi
5:30 PM73 °FSunny.10 mph50%30.04 "Hg10 mi
5:00 PM73 °FPassing clouds.9 mph53%30.04 "HgN/A
4:30 PM73 °FSunny.12 mph50%30.04 "Hg10 mi
4:00 PM73 °FSunny.13 mph53%30.04 "Hg10 mi
3:30 PM72 °FPassing clouds.10 mph57%30.04 "HgN/A
3:00 PM72 °FPassing clouds.10 mph57%30.04 "HgN/A
2:30 PM73 °FPassing clouds.7 mph50%30.07 "HgN/A
2:00 PM79 °FSunny.9 mph37%30.07 "Hg10 mi
1:30 PM77 °FPassing clouds.13 mph36%30.07 "HgN/A
1:00 PM77 °FPassing clouds.9 mph34%30.07 "HgN/A
12:30 PM77 °FPassing clouds.12 mph34%30.09 "HgN/A
12:00 PM75 °FPassing clouds.14 mph36%30.09 "HgN/A
11:30 AM75 °FSunny.13 mph39%30.09 "Hg10 mi
11:00 AM73 °FPassing clouds.13 mph41%30.09 "HgN/A
10:30 AM72 °FPassing clouds.14 mph44%30.09 "HgN/A
10:00 AM72 °FPassing clouds.12 mph41%30.09 "HgN/A
Weather by CustomWeather, © 2015

See weather overviewHow to use our weather pages